This demonstration page uses our WeatherBlox Daily Observations layout. Learn more.

Left ArrowRight Arrow

44.31136, -96.79839

Hourly Observations for January 28, 2022

Temp ( °F °C ) Dew Point ( °F °C ) Humidity (%) Winds ( mph kmh ) Pressure ( in mb ) Visibility ( mi km ) Precip ( " mm )
12:56 am 00:56 Clear -9 -22.8 -14 -25.6 78 78 Calm 30.60 1036 10 16 0.00 0.00
1:56 am 01:56 Clear -11 -23.9 -17 -27.2 74 74 Calm 30.59 1036 10 16 0.00 0.00
2:56 am 02:56 Clear -12 -24.4 -17 -27.2 78 78 Calm 30.59 1036 10 16 0.00 0.00
3:56 am 03:56 Clear -13 -25 -19 -28.3 74 74 Calm 30.58 1036 10 16 0.00 0.00
4:56 am 04:56 Cloudy -8 -22.2 -12 -24.4 82 82 VRB 3 6 30.57 1035 10 16 0.00 0.00
5:56 am 05:56 Cloudy -2 -18.9 -6 -21.1 83 83 S 5 7 30.54 1034 10 16 0.00 0.00
6:36 am 06:36 Cloudy 0 -18 -4 -20 84 84 E 5 7 30.57 1035 10 16 0.00 0.00
6:56 am 06:56 Cloudy 0 -17.8 -5 -20.6 79 79 SE 5 7 30.53 1034 10 16 0.00 0.00
7:56 am 07:56 Cloudy 1 -17.2 -3 -19.4 83 83 SSE 6 9 30.52 1034 9 14 0.00 0.00
8:34 am 08:34 Partly Cloudy 1 -17 -2 -19 85 85 SSE 3 6 30.54 1034 10 16 0.00 0.00
8:56 am 08:56 Sunny 3 -16.1 -1 -18.3 83 83 SSE 5 7 30.52 1034 10 16 0.00 0.00
9:56 am 09:56 Mostly Cloudy 8 -13.3 3 -16.1 80 80 S 5 7 30.50 1033 10 16 0.00 0.00
10:56 am 10:56 Cloudy 15 -9.4 5 -15 64 64 SSW 8 13 30.49 1033 10 16 0.00 0.00
11:56 am 11:56 Mostly Cloudy 20 -6.7 9 -12.8 62 62 SSW 9 15 30.46 1032 10 16 0.00 0.00
12:56 pm 12:56 Cloudy 23 -5 13 -10.6 65 65 S 10 17 30.42 1030 10 16 0.00 0.00
1:56 pm 13:56 Sunny 28 -2.2 16 -8.9 60 60 SSW 8 13 30.38 1029 10 16 0.00 0.00
2:56 pm 14:56 Sunny 29 -1.7 19 -7.2 66 66 SSW 7 11 30.35 1028 10 16 0.00 0.00
3:56 pm 15:56 Sunny 33 0.6 18 -7.8 54 54 WSW 9 15 30.34 1027 10 16 0.00 0.00
4:56 pm 16:56 Sunny 31 -0.6 19 -7.2 61 61 SSW 7 11 30.31 1027 10 16 0.00 0.00
5:56 pm 17:56 Clear 27 -2.8 18 -7.8 69 69 SSE 7 11 30.30 1026 10 16 0.00 0.00
6:56 pm 18:56 Clear 23 -5 16 -8.9 74 74 SE 10 17 30.28 1025 10 16 0.00 0.00
7:56 pm 19:56 Clear 20 -6.7 14 -10 78 78 SSE 13 20 30.26 1025 10 16 0.00 0.00
8:56 pm 20:56 Clear 22 -5.6 14 -10 71 71 SSE 13 20 30.23 1024 10 16 0.00 0.00
9:56 pm 21:56 Clear 21 -6.1 14 -10 74 74 SSE 10 17 30.21 1023 10 16 0.00 0.00
10:56 pm 22:56 Clear 19 -7.2 13 -10.6 77 77 SSE 7 11 30.18 1022 10 16 0.00 0.00
11:56 pm 23:56 Clear 18 -7.8 13 -10.6 81 81 SE 8 13 30.14 1021 10 16 0.00 0.00

Powered by AerisWeather